パンスターズ彗星

P/2013 G10 ( PanSTARRS )

English version
Home page
Updated on April 6, 2026

---------------------------------------------------------------------

・ プロフィール

符号 P/2013 G10

・ 軌道要素

                    Epoch = 2012 Dec. 19.0 TT
     T = 2012 Dec. 22.79702 TT        Peri. =  69.60530
     e = 0.3399242                    Node  = 106.67334 2000.0
     q = 2.3504316 AU                 Incl. =   4.09220
       a =  3.5608511 AU   n = 0.14668083   P =   6.72 years

・ 光度変化

        m1 = 14.5 + 5 logΔ + 10.0 log r

---------------------------------------------------------------------

軌道要素は、CBET 5659に掲載されたものです。
光度グラフはComet for Windowsで作成したものです。

---------------------------------------------------------------------

Copyright(C) Seiichi Yoshida (comet@aerith.net). All rights reserved.